Time,TemperatureF,DewpointF,PressureIn,WindDirection,WindDirectionDegrees,WindSpeedMPH,WindSpeedGustMPH,Humidity,HourlyPrecipIn,Conditions,Clouds,dailyrainin,SoftwareType,DateUTC
2013-08-03 00:01:00,62.8,61.8,29.86,North,0,0.0,0.0,97,0.00,,,0.00,WUHU216HW,2013-08-03 04:01:00,
2013-08-03 00:02:00,62.8,61.8,29.87,North,0,0.0,0.0,97,0.00,,,0.00,WUHU216HW,2013-08-03 04:02:00,
2013-08-03 00:03:00,62.8,61.8,29.86,North,0,0.0,0.0,97,0.00,,,0.00,WUHU216HW,2013-08-03 04:03:00,
2013-08-03 00:07:00,62.6,61.6,29.86,North,0,0.0,0.0,97,0.00,,,0.00,WUHU216HW,2013-08-03 04:07:00,
2013-08-03 00:12:00,62.6,61.6,29.87,North,0,0.0,0.0,97,0.00,,,0.00,WUHU216HW,2013-08-03 04:12:00,
2013-08-03 00:18:00,62.5,61.5,29.87,WSW,248,0.4,0.9,97,0.00,,,0.00,WUHU216HW,2013-08-03 04:18:00,
2013-08-03 00:23:00,62.3,61.3,29.87,SW,229,0.8,1.1,97,0.00,,,0.00,WUHU216HW,2013-08-03 04:23:00,
2013-08-03 00:28:00,62.3,61.6,29.87,SW,225,0.8,1.1,98,0.00,,,0.00,WUHU216HW,2013-08-03 04:28:00,
2013-08-03 00:33:00,62.1,61.4,29.87,SW,225,1.1,1.1,98,0.00,,,0.00,WUHU216HW,2013-08-03 04:33:00,
2013-08-03 00:38:00,62.1,61.4,29.87,SW,225,1.2,1.3,98,0.00,,,0.00,WUHU216HW,2013-08-03 04:38:00,
2013-08-03 00:43:00,61.9,61.2,29.87,SW,225,0.6,0.9,98,0.00,,,0.00,WUHU216HW,2013-08-03 04:43:00,
2013-08-03 00:48:00,61.9,61.2,29.87,SW,225,0.1,0.4,98,0.00,,,0.00,WUHU216HW,2013-08-03 04:48:00,
2013-08-03 00:53:00,61.9,61.2,29.87,WSW,248,1.0,1.3,98,0.00,,,0.00,WUHU216HW,2013-08-03 04:53:00,
2013-08-03 00:58:00,61.9,61.2,29.88,SW,225,0.8,0.9,98,0.00,,,0.00,WUHU216HW,2013-08-03 04:58:00,
2013-08-03 01:03:00,61.9,61.2,29.88,SW,225,0.1,0.9,98,0.00,,,0.00,WUHU216HW,2013-08-03 05:03:00,
2013-08-03 01:08:00,61.9,61.2,29.88,North,0,0.0,0.0,98,0.00,,,0.00,WUHU216HW,2013-08-03 05:08:00,
2013-08-03 01:13:00,61.7,61.0,29.88,SW,225,0.1,0.4,98,0.00,,,0.00,WUHU216HW,2013-08-03 05:13:00,
2013-08-03 01:18:00,61.9,61.2,29.89,East,90,0.7,0.9,98,0.00,,,0.00,WUHU216HW,2013-08-03 05:18:00,
2013-08-03 01:23:00,61.7,61.0,29.89,North,0,0.0,0.0,98,0.00,,,0.00,WUHU216HW,2013-08-03 05:23:00,
2013-08-03 01:28:00,61.7,61.0,29.89,North,0,0.0,0.0,98,0.00,,,0.00,WUHU216HW,2013-08-03 05:28:00,
2013-08-03 01:33:00,61.6,60.9,29.89,North,0,0.0,0.0,98,0.00,,,0.00,WUHU216HW,2013-08-03 05:33:00,
2013-08-03 01:38:00,61.6,60.9,29.89,North,0,0.0,0.0,98,0.00,,,0.00,WUHU216HW,2013-08-03 05:38:00,
2013-08-03 01:43:00,61.4,60.7,29.89,North,0,0.0,0.0,98,0.00,,,0.00,WUHU216HW,2013-08-03 05:43:00,
2013-08-03 01:48:00,61.2,60.5,29.89,ESE,114,0.7,0.9,98,0.00,,,0.00,WUHU216HW,2013-08-03 05:48:00,
2013-08-03 01:54:00,61.2,60.5,29.89,SW,225,1.1,1.1,98,0.00,,,0.00,WUHU216HW,2013-08-03 05:54:00,
2013-08-03 01:59:00,61.0,60.3,29.89,North,0,0.0,0.0,98,0.00,,,0.00,WUHU216HW,2013-08-03 05:59:00,
2013-08-03 02:04:00,61.0,60.3,29.89,North,0,0.0,0.0,98,0.00,,,0.00,WUHU216HW,2013-08-03 06:04:00,
2013-08-03 02:09:00,61.0,60.3,29.89,North,0,0.0,0.0,98,0.00,,,0.00,WUHU216HW,2013-08-03 06:09:00,
2013-08-03 02:14:00,61.0,60.3,29.89,North,0,0.0,0.0,98,0.00,,,0.00,WUHU216HW,2013-08-03 06:14:00,
2013-08-03 02:19:00,60.8,60.1,29.89,North,0,0.0,0.0,98,0.00,,,0.00,WUHU216HW,2013-08-03 06:19:00,
2013-08-03 02:24:00,60.7,60.0,29.89,North,0,0.0,0.0,98,0.00,,,0.00,WUHU216HW,2013-08-03 06:24:00,
2013-08-03 02:29:00,60.7,60.0,29.89,North,0,0.0,0.0,98,0.00,,,0.00,WUHU216HW,2013-08-03 06:29:00,
2013-08-03 02:34:00,60.7,60.0,29.89,North,0,0.0,0.0,98,0.00,,,0.00,WUHU216HW,2013-08-03 06:34:00,
2013-08-03 02:39:00,60.5,59.8,29.90,SW,225,0.3,0.4,98,0.00,,,0.00,WUHU216HW,2013-08-03 06:39:00,
2013-08-03 02:44:00,60.5,59.8,29.90,ENE,68,0.5,0.7,98,0.00,,,0.00,WUHU216HW,2013-08-03 06:44:00,
2013-08-03 02:49:00,60.5,59.8,29.89,North,0,0.0,0.0,98,0.00,,,0.00,WUHU216HW,2013-08-03 06:49:00,
2013-08-03 02:54:00,60.3,59.6,29.89,North,0,0.0,0.0,98,0.00,,,0.00,WUHU216HW,2013-08-03 06:54:00,
2013-08-03 03:00:00,60.1,59.4,29.89,North,0,0.0,0.0,98,0.00,,,0.00,WUHU216HW,2013-08-03 07:00:00,
2013-08-03 03:04:00,59.8,59.2,29.89,North,0,0.0,0.0,98,0.00,,,0.00,WUHU216HW,2013-08-03 07:04:00,
2013-08-03 03:10:00,59.6,59.0,29.89,North,0,0.0,0.0,98,0.00,,,0.00,WUHU216HW,2013-08-03 07:10:00,
2013-08-03 03:14:00,59.4,58.8,29.89,ENE,68,0.5,0.7,98,0.00,,,0.00,WUHU216HW,2013-08-03 07:14:00,
2013-08-03 03:19:00,59.2,58.6,29.89,North,0,0.0,0.0,98,0.00,,,0.00,WUHU216HW,2013-08-03 07:19:00,
2013-08-03 03:25:00,59.0,58.7,29.90,North,0,0.0,0.0,99,0.00,,,0.00,WUHU216HW,2013-08-03 07:25:00,
2013-08-03 03:30:00,58.9,58.6,29.89,North,0,0.0,0.0,99,0.00,,,0.00,WUHU216HW,2013-08-03 07:30:00,
2013-08-03 03:35:00,58.7,58.4,29.90,North,0,0.0,0.0,99,0.00,,,0.00,WUHU216HW,2013-08-03 07:35:00,
2013-08-03 03:40:00,58.3,58.0,29.90,North,0,0.0,0.0,99,0.00,,,0.00,WUHU216HW,2013-08-03 07:40:00,
2013-08-03 03:45:00,58.0,57.4,29.90,North,0,0.0,0.0,98,0.00,,,0.00,WUHU216HW,2013-08-03 07:45:00,
2013-08-03 03:50:00,58.0,57.4,29.90,ENE,68,0.0,0.2,98,0.00,,,0.00,WUHU216HW,2013-08-03 07:50:00,
2013-08-03 03:55:00,57.8,57.2,29.91,North,0,0.0,0.0,98,0.00,,,0.00,WUHU216HW,2013-08-03 07:55:00,
2013-08-03 04:00:00,57.6,57.0,29.90,North,0,0.0,0.0,98,0.00,,,0.00,WUHU216HW,2013-08-03 08:00:00,
2013-08-03 04:05:00,57.2,56.6,29.90,North,0,0.0,0.0,98,0.00,,,0.00,WUHU216HW,2013-08-03 08:05:00,
2013-08-03 04:10:00,57.2,56.6,29.90,North,0,0.0,0.0,98,0.00,,,0.00,WUHU216HW,2013-08-03 08:10:00,
2013-08-03 04:15:00,56.9,56.3,29.90,North,0,0.0,0.0,98,0.00,,,0.00,WUHU216HW,2013-08-03 08:15:00,
2013-08-03 04:20:00,56.7,56.1,29.91,North,0,0.0,0.0,98,0.00,,,0.00,WUHU216HW,2013-08-03 08:20:00,
2013-08-03 04:25:00,56.5,55.9,29.90,North,0,0.0,0.0,98,0.00,,,0.00,WUHU216HW,2013-08-03 08:25:00,
2013-08-03 04:30:00,56.3,55.7,29.90,North,0,0.0,0.0,98,0.00,,,0.00,WUHU216HW,2013-08-03 08:30:00,
2013-08-03 04:35:00,56.2,55.6,29.91,North,0,0.0,0.0,98,0.00,,,0.00,WUHU216HW,2013-08-03 08:35:00,
2013-08-03 04:41:00,55.8,55.5,29.91,North,0,0.0,0.0,99,0.00,,,0.00,WUHU216HW,2013-08-03 08:41:00,
2013-08-03 04:46:00,55.8,55.5,29.91,North,0,0.0,0.0,99,0.00,,,0.00,WUHU216HW,2013-08-03 08:46:00,
2013-08-03 04:51:00,55.6,55.3,29.91,North,0,0.0,0.0,99,0.00,,,0.00,WUHU216HW,2013-08-03 08:51:00,
2013-08-03 04:56:00,55.4,55.1,29.91,North,0,0.0,0.0,99,0.00,,,0.00,WUHU216HW,2013-08-03 08:56:00,
2013-08-03 05:01:00,55.3,55.0,29.91,North,0,0.0,0.0,99,0.00,,,0.00,WUHU216HW,2013-08-03 09:01:00,
2013-08-03 05:06:00,55.1,54.8,29.91,North,0,0.0,0.0,99,0.00,,,0.00,WUHU216HW,2013-08-03 09:06:00,
2013-08-03 05:11:00,54.9,54.6,29.91,North,0,0.0,0.0,99,0.00,,,0.00,WUHU216HW,2013-08-03 09:11:00,
2013-08-03 05:16:00,54.7,54.4,29.91,North,0,0.0,0.0,99,0.00,,,0.00,WUHU216HW,2013-08-03 09:16:00,
2013-08-03 05:21:00,54.5,54.2,29.91,North,0,0.0,0.0,99,0.00,,,0.00,WUHU216HW,2013-08-03 09:21:00,
2013-08-03 05:26:00,54.5,54.2,29.91,North,0,0.0,0.0,99,0.00,,,0.00,WUHU216HW,2013-08-03 09:26:00,
2013-08-03 05:31:00,54.4,54.1,29.91,North,0,0.0,0.0,99,0.00,,,0.00,WUHU216HW,2013-08-03 09:31:00,
2013-08-03 05:36:00,54.4,54.1,29.92,North,0,0.0,0.0,99,0.00,,,0.00,WUHU216HW,2013-08-03 09:36:00,
2013-08-03 05:41:00,54.4,54.1,29.92,North,0,0.0,0.0,99,0.00,,,0.00,WUHU216HW,2013-08-03 09:41:00,
2013-08-03 05:46:00,54.0,53.7,29.92,North,0,0.0,0.0,99,0.00,,,0.00,WUHU216HW,2013-08-03 09:46:00,
2013-08-03 05:52:00,53.8,53.5,29.92,North,0,0.0,0.0,99,0.00,,,0.00,WUHU216HW,2013-08-03 09:52:00,
2013-08-03 05:57:00,53.6,53.3,29.92,North,0,0.0,0.0,99,0.00,,,0.00,WUHU216HW,2013-08-03 09:57:00,
2013-08-03 06:02:00,53.6,53.3,29.92,North,0,0.0,0.0,99,0.00,,,0.00,WUHU216HW,2013-08-03 10:02:00,
2013-08-03 06:07:00,53.6,53.3,29.92,North,0,0.0,0.0,99,0.00,,,0.00,WUHU216HW,2013-08-03 10:07:00,
2013-08-03 06:12:00,53.5,53.2,29.92,North,0,0.0,0.0,99,0.00,,,0.00,WUHU216HW,2013-08-03 10:12:00,
2013-08-03 06:17:00,53.5,53.2,29.92,North,0,0.0,0.0,99,0.00,,,0.00,WUHU216HW,2013-08-03 10:17:00,
2013-08-03 06:22:00,53.3,53.0,29.92,North,0,0.0,0.0,99,0.00,,,0.00,WUHU216HW,2013-08-03 10:22:00,
2013-08-03 06:27:00,53.1,52.8,29.93,North,0,0.0,0.0,99,0.00,,,0.00,WUHU216HW,2013-08-03 10:27:00,
2013-08-03 06:32:00,52.9,52.6,29.92,North,0,0.0,0.0,99,0.00,,,0.00,WUHU216HW,2013-08-03 10:32:00,
2013-08-03 06:37:00,52.7,52.4,29.93,North,0,0.0,0.0,99,0.00,,,0.00,WUHU216HW,2013-08-03 10:37:00,
2013-08-03 06:42:00,52.7,52.4,29.93,North,0,0.0,0.0,99,0.00,,,0.00,WUHU216HW,2013-08-03 10:42:00,
2013-08-03 06:47:00,52.7,52.4,29.93,North,0,0.0,0.0,99,0.00,,,0.00,WUHU216HW,2013-08-03 10:47:00,
2013-08-03 06:52:00,52.7,52.7,29.93,North,0,0.0,0.0,100,0.00,,,0.00,WUHU216HW,2013-08-03 10:52:00,
2013-08-03 06:57:00,52.6,52.6,29.93,North,0,0.0,0.0,100,0.00,,,0.00,WUHU216HW,2013-08-03 10:57:00,
2013-08-03 07:02:00,52.6,52.3,29.93,North,0,0.0,0.0,99,0.00,,,0.00,WUHU216HW,2013-08-03 11:02:00,
2013-08-03 07:07:00,52.6,52.3,29.93,North,0,0.0,0.0,99,0.00,,,0.00,WUHU216HW,2013-08-03 11:07:00,
2013-08-03 07:12:00,52.7,52.4,29.93,North,0,0.0,0.0,99,0.00,,,0.00,WUHU216HW,2013-08-03 11:12:00,
2013-08-03 07:18:00,52.9,52.6,29.93,North,0,0.0,0.0,99,0.00,,,0.00,WUHU216HW,2013-08-03 11:18:00,
2013-08-03 07:23:00,53.1,52.8,29.94,North,0,0.0,0.0,99,0.00,,,0.00,WUHU216HW,2013-08-03 11:23:00,
2013-08-03 07:28:00,53.3,53.0,29.93,North,0,0.0,0.0,99,0.00,,,0.00,WUHU216HW,2013-08-03 11:28:00,
2013-08-03 07:33:00,53.6,53.3,29.94,North,0,0.0,0.0,99,0.00,,,0.00,WUHU216HW,2013-08-03 11:33:00,
2013-08-03 07:38:00,53.6,53.3,29.94,North,0,0.0,0.0,99,0.00,,,0.00,WUHU216HW,2013-08-03 11:38:00,
2013-08-03 07:43:00,54.0,53.7,29.94,North,0,0.0,0.0,99,0.00,,,0.00,WUHU216HW,2013-08-03 11:43:00,
2013-08-03 07:48:00,54.4,54.1,29.94,North,0,0.0,0.0,99,0.00,,,0.00,WUHU216HW,2013-08-03 11:48:00,
2013-08-03 07:53:00,54.9,54.6,29.94,North,0,0.0,0.0,99,0.00,,,0.00,WUHU216HW,2013-08-03 11:53:00,
2013-08-03 07:58:00,55.3,55.0,29.94,North,0,0.0,0.0,99,0.00,,,0.00,WUHU216HW,2013-08-03 11:58:00,
2013-08-03 08:04:00,55.8,55.5,29.94,ENE,68,0.2,0.4,99,0.00,,,0.00,WUHU216HW,2013-08-03 12:04:00,
2013-08-03 08:09:00,56.5,55.9,29.94,North,0,0.0,0.0,98,0.00,,,0.00,WUHU216HW,2013-08-03 12:09:00,
2013-08-03 08:14:00,57.2,56.6,29.94,ENE,68,0.0,0.4,98,0.00,,,0.00,WUHU216HW,2013-08-03 12:14:00,
2013-08-03 08:19:00,58.1,57.8,29.94,NNE,23,0.9,1.1,99,0.00,,,0.00,WUHU216HW,2013-08-03 12:19:00,
2013-08-03 08:24:00,58.9,58.6,29.94,NNE,23,1.4,1.6,99,0.00,,,0.00,WUHU216HW,2013-08-03 12:24:00,
2013-08-03 08:29:00,59.4,58.8,29.94,NE,45,0.2,0.4,98,0.00,,,0.00,WUHU216HW,2013-08-03 12:29:00,
2013-08-03 08:34:00,59.8,59.2,29.94,ENE,68,0.3,0.4,98,0.00,,,0.00,WUHU216HW,2013-08-03 12:34:00,
2013-08-03 08:39:00,60.1,59.4,29.94,NE,34,0.2,0.4,98,0.00,,,0.00,WUHU216HW,2013-08-03 12:39:00,
2013-08-03 08:45:00,60.5,59.8,29.94,North,0,0.2,0.4,98,0.00,,,0.00,WUHU216HW,2013-08-03 12:45:00,
2013-08-03 08:50:00,60.7,60.0,29.94,NNE,23,1.2,3.1,98,0.00,,,0.00,WUHU216HW,2013-08-03 12:50:00,
2013-08-03 08:55:00,61.2,60.5,29.95,NNE,23,0.4,0.9,98,0.00,,,0.00,WUHU216HW,2013-08-03 12:55:00,
2013-08-03 09:00:00,61.4,60.7,29.95,North,0,0.0,0.0,98,0.00,,,0.00,WUHU216HW,2013-08-03 13:00:00,
2013-08-03 09:05:00,61.4,60.7,29.95,North,356,0.6,0.9,98,0.00,,,0.00,WUHU216HW,2013-08-03 13:05:00,
2013-08-03 09:10:00,61.7,61.0,29.95,NNW,339,0.2,0.4,98,0.00,,,0.00,WUHU216HW,2013-08-03 13:10:00,
2013-08-03 09:15:00,62.5,61.8,29.95,East,81,0.7,1.8,98,0.00,,,0.00,WUHU216HW,2013-08-03 13:15:00,
2013-08-03 09:20:00,63.2,62.5,29.95,NE,38,0.8,2.5,98,0.00,,,0.00,WUHU216HW,2013-08-03 13:20:00,
2013-08-03 09:25:00,63.9,63.2,29.96,North,9,2.4,3.4,98,0.00,,,0.00,WUHU216HW,2013-08-03 13:25:00,
2013-08-03 09:30:00,64.4,63.7,29.96,NE,53,3.2,3.6,98,0.00,,,0.00,WUHU216HW,2013-08-03 13:30:00,
2013-08-03 09:35:00,65.0,64.3,29.96,NNE,23,1.0,1.6,98,0.00,,,0.00,WUHU216HW,2013-08-03 13:35:00,
2013-08-03 09:40:00,65.9,65.6,29.96,ENE,73,1.1,2.0,99,0.00,,,0.00,WUHU216HW,2013-08-03 13:40:00,
2013-08-03 09:45:00,66.4,66.1,29.96,North,0,2.6,3.4,99,0.00,,,0.00,WUHU216HW,2013-08-03 13:45:00,
2013-08-03 09:50:00,67.0,66.3,29.96,NE,37,3.0,3.4,98,0.00,,,0.00,WUHU216HW,2013-08-03 13:50:00,
2013-08-03 09:55:00,67.5,66.1,29.96,NNW,329,1.2,1.8,96,0.00,,,0.00,WUHU216HW,2013-08-03 13:55:00,
2013-08-03 10:01:00,68.0,66.3,29.96,NNE,18,1.8,2.5,94,0.00,,,0.00,WUHU216HW,2013-08-03 14:01:00,
2013-08-03 10:06:00,68.4,66.0,29.96,East,91,2.1,2.9,92,0.00,,,0.00,WUHU216HW,2013-08-03 14:06:00,
2013-08-03 10:11:00,68.8,66.1,29.96,ESE,106,1.7,2.5,91,0.00,,,0.00,WUHU216HW,2013-08-03 14:11:00,
2013-08-03 10:16:00,69.3,66.2,29.96,NW,323,2.1,2.2,90,0.00,,,0.00,WUHU216HW,2013-08-03 14:16:00,
2013-08-03 10:21:00,69.8,66.3,29.96,North,8,2.6,3.1,89,0.00,,,0.00,WUHU216HW,2013-08-03 14:21:00,
2013-08-03 10:26:00,70.4,66.2,29.95,NW,315,1.2,2.2,87,0.00,,,0.00,WUHU216HW,2013-08-03 14:26:00,
2013-08-03 10:31:00,70.6,65.3,29.96,NNE,31,1.7,2.2,83,0.00,,,0.00,WUHU216HW,2013-08-03 14:31:00,
2013-08-03 10:36:00,70.9,65.6,29.96,North,8,2.8,4.3,83,0.00,,,0.00,WUHU216HW,2013-08-03 14:36:00,
2013-08-03 10:41:00,71.3,65.2,29.95,ENE,76,3.3,5.8,81,0.00,,,0.00,WUHU216HW,2013-08-03 14:41:00,
2013-08-03 10:46:00,71.6,64.7,29.96,North,358,1.9,2.2,79,0.00,,,0.00,WUHU216HW,2013-08-03 14:46:00,
2013-08-03 10:52:00,71.8,65.3,29.96,North,359,1.3,2.5,80,0.00,,,0.00,WUHU216HW,2013-08-03 14:52:00,
2013-08-03 10:57:00,72.5,66.0,29.96,NNE,22,4.5,5.1,80,0.00,,,0.00,WUHU216HW,2013-08-03 14:57:00,
2013-08-03 11:02:00,72.7,65.4,29.96,North,351,2.6,3.4,78,0.00,,,0.00,WUHU216HW,2013-08-03 15:02:00,
2013-08-03 11:07:00,72.9,65.6,29.96,ENE,75,2.6,3.6,78,0.00,,,0.00,WUHU216HW,2013-08-03 15:07:00,
2013-08-03 11:12:00,73.4,66.1,29.95,North,349,1.8,2.5,78,0.00,,,0.00,WUHU216HW,2013-08-03 15:12:00,
2013-08-03 11:17:00,74.0,66.7,29.96,SW,226,1.8,2.2,78,0.00,,,0.00,WUHU216HW,2013-08-03 15:17:00,
2013-08-03 11:22:00,74.5,66.3,29.96,NE,36,1.4,2.5,75,0.00,,,0.00,WUHU216HW,2013-08-03 15:22:00,
2013-08-03 11:27:00,74.3,64.8,29.96,NE,53,2.4,4.0,72,0.00,,,0.00,WUHU216HW,2013-08-03 15:27:00,
2013-08-03 11:32:00,74.5,65.9,29.96,NW,320,1.3,1.8,74,0.00,,,0.00,WUHU216HW,2013-08-03 15:32:00,
2013-08-03 11:37:00,75.1,66.1,29.96,NE,53,2.5,3.8,73,0.00,,,0.00,WUHU216HW,2013-08-03 15:37:00,
2013-08-03 11:42:00,74.9,65.0,29.96,North,6,1.3,2.0,71,0.00,,,0.00,WUHU216HW,2013-08-03 15:42:00,
2013-08-03 11:47:00,75.1,65.6,29.97,West,270,2.1,3.1,72,0.00,,,0.00,WUHU216HW,2013-08-03 15:47:00,
2013-08-03 11:52:00,75.4,65.9,29.97,WSW,250,0.4,0.9,72,0.00,,,0.00,WUHU216HW,2013-08-03 15:52:00,
2013-08-03 11:57:00,75.8,65.8,29.97,NNW,346,1.4,2.0,71,0.00,,,0.00,WUHU216HW,2013-08-03 15:57:00,
2013-08-03 12:02:00,76.1,66.6,29.97,WSW,238,2.6,3.1,72,0.00,,,0.00,WUHU216HW,2013-08-03 16:02:00,
2013-08-03 12:07:00,76.7,66.3,29.97,North,9,1.5,1.8,70,0.00,,,0.00,WUHU216HW,2013-08-03 16:07:00,
2013-08-03 12:12:00,76.9,66.9,29.97,WSW,247,2.0,2.2,71,0.00,,,0.00,WUHU216HW,2013-08-03 16:12:00,
2013-08-03 12:17:00,76.9,66.0,29.96,West,267,2.6,3.1,69,0.00,,,0.00,WUHU216HW,2013-08-03 16:17:00,
2013-08-03 12:22:00,77.2,66.3,29.96,North,8,1.6,2.0,69,0.00,,,0.00,WUHU216HW,2013-08-03 16:22:00,
2013-08-03 12:27:00,77.0,66.1,29.96,NNW,332,1.5,1.8,69,0.00,,,0.00,WUHU216HW,2013-08-03 16:27:00,
2013-08-03 12:33:00,77.4,66.5,29.96,SE,124,1.2,1.6,69,0.00,,,0.00,WUHU216HW,2013-08-03 16:33:00,
2013-08-03 12:37:00,77.4,65.5,29.96,East,98,2.5,2.9,66,0.00,,,0.00,WUHU216HW,2013-08-03 16:37:00,
2013-08-03 12:43:00,77.6,66.2,29.96,South,187,1.0,1.3,67,0.00,,,0.00,WUHU216HW,2013-08-03 16:43:00,
2013-08-03 12:48:00,78.5,67.5,29.96,NW,322,1.3,1.8,69,0.00,,,0.00,WUHU216HW,2013-08-03 16:48:00,
2013-08-03 12:53:00,78.8,65.9,29.96,East,101,1.8,2.5,64,0.00,,,0.00,WUHU216HW,2013-08-03 16:53:00,
2013-08-03 12:58:00,78.5,66.6,29.96,SW,228,1.2,4.0,66,0.00,,,0.00,WUHU216HW,2013-08-03 16:58:00,
2013-08-03 13:03:00,78.3,66.4,29.96,SW,228,0.6,1.8,66,0.00,,,0.00,WUHU216HW,2013-08-03 17:03:00,
2013-08-03 13:08:00,78.8,66.9,29.97,SW,231,1.8,2.5,66,0.00,,,0.00,WUHU216HW,2013-08-03 17:08:00,
2013-08-03 13:13:00,78.1,65.2,29.97,NE,35,1.6,2.0,64,0.00,,,0.00,WUHU216HW,2013-08-03 17:13:00,
2013-08-03 13:18:00,77.8,64.9,29.96,WSW,245,3.9,5.1,64,0.00,,,0.00,WUHU216HW,2013-08-03 17:18:00,
2013-08-03 13:23:00,78.1,65.7,29.97,SW,228,0.8,1.1,65,0.00,,,0.00,WUHU216HW,2013-08-03 17:23:00,
2013-08-03 13:28:00,78.8,66.4,29.97,WSW,248,4.2,5.4,65,0.00,,,0.00,WUHU216HW,2013-08-03 17:28:00,
2013-08-03 13:33:00,79.2,65.2,29.97,WNW,287,3.5,4.0,62,0.00,,,0.00,WUHU216HW,2013-08-03 17:33:00,
2013-08-03 13:38:00,78.5,65.1,29.97,South,189,2.2,3.4,63,0.00,,,0.00,WUHU216HW,2013-08-03 17:38:00,
2013-08-03 13:43:00,78.8,65.9,29.97,WNW,283,3.0,3.4,64,0.00,,,0.00,WUHU216HW,2013-08-03 17:43:00,
2013-08-03 13:48:00,79.2,64.1,29.97,WNW,285,2.9,5.4,60,0.00,,,0.00,WUHU216HW,2013-08-03 17:48:00,
2013-08-03 13:53:00,79.6,65.1,29.97,East,92,2.1,3.1,61,0.00,,,0.00,WUHU216HW,2013-08-03 17:53:00,
2013-08-03 13:58:00,80.1,65.5,29.97,NNW,334,1.8,2.5,61,0.00,,,0.00,WUHU216HW,2013-08-03 17:58:00,
2013-08-03 14:04:00,79.7,64.6,29.97,NW,323,1.1,1.6,60,0.00,,,0.00,WUHU216HW,2013-08-03 18:04:00,
2013-08-03 14:08:00,79.2,64.7,29.97,South,176,1.0,1.1,61,0.00,,,0.00,WUHU216HW,2013-08-03 18:08:00,
2013-08-03 14:13:00,78.7,64.2,29.97,NNW,338,0.4,0.7,61,0.00,,,0.00,WUHU216HW,2013-08-03 18:13:00,
2013-08-03 14:19:00,78.7,64.7,29.97,SSW,198,1.9,2.9,62,0.00,,,0.00,WUHU216HW,2013-08-03 18:19:00,
2013-08-03 14:24:00,79.9,64.8,29.97,North,3,4.7,5.4,60,0.00,,,0.00,WUHU216HW,2013-08-03 18:24:00,
2013-08-03 14:29:00,80.8,63.9,29.96,NNW,345,2.3,3.6,56,0.00,,,0.00,WUHU216HW,2013-08-03 18:29:00,
2013-08-03 14:34:00,81.4,66.2,29.96,WSW,252,4.4,4.7,60,0.00,,,0.00,WUHU216HW,2013-08-03 18:34:00,
2013-08-03 14:39:00,82.3,66.5,29.96,WSW,258,1.7,2.5,58,0.00,,,0.00,WUHU216HW,2013-08-03 18:39:00,
2013-08-03 14:44:00,82.1,65.7,29.96,WSW,245,2.9,3.6,57,0.00,,,0.00,WUHU216HW,2013-08-03 18:44:00,
2013-08-03 14:49:00,82.4,67.2,29.96,SW,221,2.6,2.9,60,0.00,,,0.00,WUHU216HW,2013-08-03 18:49:00,
2013-08-03 14:54:00,83.2,66.8,29.96,SE,131,2.1,3.6,57,0.00,,,0.00,WUHU216HW,2013-08-03 18:54:00,
2013-08-03 14:59:00,82.6,65.6,29.96,NNW,335,0.7,1.1,56,0.00,,,0.00,WUHU216HW,2013-08-03 18:59:00,
2013-08-03 15:04:00,81.4,65.1,29.96,NNE,16,1.5,2.5,57,0.00,,,0.00,WUHU216HW,2013-08-03 19:04:00,
2013-08-03 15:09:00,81.4,64.5,29.96,NNE,32,3.9,4.9,56,0.00,,,0.00,WUHU216HW,2013-08-03 19:09:00,
2013-08-03 15:14:00,81.2,64.9,29.96,West,259,1.2,1.3,57,0.00,,,0.00,WUHU216HW,2013-08-03 19:14:00,
2013-08-03 15:19:00,80.8,65.1,29.96,ENE,67,1.0,1.1,58,0.00,,,0.00,WUHU216HW,2013-08-03 19:19:00,
2013-08-03 15:24:00,81.2,63.7,29.96,North,0,1.8,2.5,55,0.00,,,0.00,WUHU216HW,2013-08-03 19:24:00,
2013-08-03 15:29:00,80.8,64.5,29.96,North,3,1.6,2.5,57,0.00,,,0.00,WUHU216HW,2013-08-03 19:29:00,
2013-08-03 15:35:00,79.6,64.5,29.97,ENE,68,0.4,0.7,60,0.00,,,0.00,WUHU216HW,2013-08-03 19:35:00,
2013-08-03 15:40:00,79.2,64.7,29.97,NE,53,2.1,3.8,61,0.00,,,0.00,WUHU216HW,2013-08-03 19:40:00,
2013-08-03 15:45:00,78.8,64.3,29.97,SSW,203,0.5,0.7,61,0.00,,,0.00,WUHU216HW,2013-08-03 19:45:00,
2013-08-03 15:50:00,78.5,64.5,29.97,North,0,0.3,0.4,62,0.00,,,0.00,WUHU216HW,2013-08-03 19:50:00,
2013-08-03 15:55:00,78.1,64.2,29.96,NNE,23,0.1,0.7,62,0.00,,,0.00,WUHU216HW,2013-08-03 19:55:00,
2013-08-03 16:00:00,77.8,64.4,29.96,West,263,2.2,2.5,63,0.00,,,0.00,WUHU216HW,2013-08-03 20:00:00,
2013-08-03 16:05:00,78.5,65.1,29.96,NNW,348,1.0,1.6,63,0.00,,,0.00,WUHU216HW,2013-08-03 20:05:00,
2013-08-03 16:10:00,79.0,64.5,29.96,North,11,0.8,1.8,61,0.00,,,0.00,WUHU216HW,2013-08-03 20:10:00,
2013-08-03 16:15:00,78.8,64.3,29.96,South,189,0.4,0.7,61,0.00,,,0.00,WUHU216HW,2013-08-03 20:15:00,
2013-08-03 16:21:00,79.7,65.2,29.96,NNW,334,0.9,1.1,61,0.00,,,0.00,WUHU216HW,2013-08-03 20:21:00,
2013-08-03 16:26:00,80.6,66.0,29.96,WSW,240,3.2,3.8,61,0.00,,,0.00,WUHU216HW,2013-08-03 20:26:00,
2013-08-03 16:31:00,81.4,66.2,29.96,SW,232,2.6,4.3,60,0.00,,,0.00,WUHU216HW,2013-08-03 20:31:00,
2013-08-03 16:35:00,82.1,66.3,29.96,WSW,258,2.8,4.0,58,0.00,,,0.00,WUHU216HW,2013-08-03 20:35:00,
2013-08-03 16:41:00,82.4,64.9,29.96,West,269,1.7,3.4,55,0.00,,,0.00,WUHU216HW,2013-08-03 20:41:00,
2013-08-03 16:46:00,81.5,65.2,29.97,West,263,1.7,1.8,57,0.00,,,0.00,WUHU216HW,2013-08-03 20:46:00,
2013-08-03 16:51:00,80.5,64.8,29.96,West,266,1.2,1.6,58,0.00,,,0.00,WUHU216HW,2013-08-03 20:51:00,
2013-08-03 16:56:00,81.4,66.2,29.96,WSW,251,2.6,4.0,60,0.00,,,0.00,WUHU216HW,2013-08-03 20:56:00,
2013-08-03 17:01:00,82.3,65.4,29.96,NE,56,2.1,2.9,56,0.00,,,0.00,WUHU216HW,2013-08-03 21:01:00,
2013-08-03 17:06:00,82.4,65.4,29.97,ENE,63,1.5,2.0,56,0.00,,,0.00,WUHU216HW,2013-08-03 21:06:00,
2013-08-03 17:11:00,82.3,64.8,29.97,NNE,17,1.9,3.8,55,0.00,,,0.00,WUHU216HW,2013-08-03 21:11:00,
2013-08-03 17:16:00,82.1,64.6,29.96,NNE,14,2.6,3.6,55,0.00,,,0.00,WUHU216HW,2013-08-03 21:16:00,
2013-08-03 17:21:00,82.4,64.9,29.96,North,355,2.5,3.4,55,0.00,,,0.00,WUHU216HW,2013-08-03 21:21:00,
2013-08-03 17:26:00,82.8,65.2,29.95,ENE,78,3.7,4.7,55,0.00,,,0.00,WUHU216HW,2013-08-03 21:26:00,
2013-08-03 17:31:00,82.8,65.8,29.96,WNW,294,1.0,3.1,56,0.00,,,0.00,WUHU216HW,2013-08-03 21:31:00,
2013-08-03 17:36:00,82.6,65.6,29.96,ESE,122,2.1,5.4,56,0.00,,,0.00,WUHU216HW,2013-08-03 21:36:00,
2013-08-03 17:41:00,82.4,64.2,29.95,North,358,1.1,1.6,54,0.00,,,0.00,WUHU216HW,2013-08-03 21:41:00,
2013-08-03 17:46:00,82.1,64.6,29.96,North,4,2.5,3.4,55,0.00,,,0.00,WUHU216HW,2013-08-03 21:46:00,
2013-08-03 17:52:00,82.4,64.9,29.96,North,7,0.6,0.9,55,0.00,,,0.00,WUHU216HW,2013-08-03 21:52:00,
2013-08-03 17:56:00,82.8,65.2,29.95,North,6,1.5,4.0,55,0.00,,,0.00,WUHU216HW,2013-08-03 21:56:00,
2013-08-03 18:02:00,83.0,65.4,29.95,ESE,109,1.6,2.0,55,0.00,,,0.00,WUHU216HW,2013-08-03 22:02:00,
2013-08-03 18:06:00,83.2,65.0,29.95,NNE,33,1.9,2.5,54,0.00,,,0.00,WUHU216HW,2013-08-03 22:06:00,
2013-08-03 18:12:00,82.1,64.6,29.95,East,85,1.1,1.6,55,0.00,,,0.00,WUHU216HW,2013-08-03 22:12:00,
2013-08-03 18:17:00,81.4,64.5,29.95,NE,49,2.7,3.1,56,0.00,,,0.00,WUHU216HW,2013-08-03 22:17:00,
2013-08-03 18:22:00,81.0,63.5,29.96,North,0,3.1,4.0,55,0.00,,,0.00,WUHU216HW,2013-08-03 22:22:00,
2013-08-03 18:27:00,80.3,64.1,29.95,East,88,1.4,1.8,57,0.00,,,0.00,WUHU216HW,2013-08-03 22:27:00,
2013-08-03 18:32:00,79.9,64.2,29.95,ENE,66,1.0,1.8,58,0.00,,,0.00,WUHU216HW,2013-08-03 22:32:00,
2013-08-03 18:37:00,79.7,64.1,29.95,NE,45,0.4,0.4,58,0.00,,,0.00,WUHU216HW,2013-08-03 22:37:00,
2013-08-03 18:42:00,79.7,64.6,29.95,NW,322,0.5,0.7,60,0.00,,,0.00,WUHU216HW,2013-08-03 22:42:00,
2013-08-03 18:47:00,79.4,64.3,29.95,NNE,23,0.1,0.2,60,0.00,,,0.00,WUHU216HW,2013-08-03 22:47:00,
2013-08-03 18:53:00,79.0,64.5,29.95,North,0,0.0,0.0,61,0.00,,,0.00,WUHU216HW,2013-08-03 22:53:00,
2013-08-03 18:58:00,78.5,64.0,29.96,NNW,335,0.8,1.1,61,0.00,,,0.00,WUHU216HW,2013-08-03 22:58:00,
2013-08-03 19:03:00,77.4,64.0,29.95,SW,232,1.4,2.2,63,0.00,,,0.00,WUHU216HW,2013-08-03 23:03:00,
2013-08-03 19:08:00,76.9,63.5,29.95,WSW,243,1.1,1.6,63,0.00,,,0.00,WUHU216HW,2013-08-03 23:08:00,
2013-08-03 19:13:00,76.9,63.5,29.95,NNW,327,1.0,1.1,63,0.00,,,0.00,WUHU216HW,2013-08-03 23:13:00,
2013-08-03 19:18:00,77.0,63.6,29.95,NNE,23,0.4,1.1,63,0.00,,,0.00,WUHU216HW,2013-08-03 23:18:00,
2013-08-03 19:23:00,76.7,63.4,29.96,NE,37,1.4,2.5,63,0.00,,,0.00,WUHU216HW,2013-08-03 23:23:00,
2013-08-03 19:28:00,76.0,62.7,29.95,North,6,1.7,2.0,63,0.00,,,0.00,WUHU216HW,2013-08-03 23:28:00,
2013-08-03 19:33:00,75.2,62.4,29.96,North,6,1.0,1.3,64,0.00,,,0.00,WUHU216HW,2013-08-03 23:33:00,
2013-08-03 19:38:00,74.5,61.8,29.96,NNE,28,1.3,1.6,64,0.00,,,0.00,WUHU216HW,2013-08-03 23:38:00,
2013-08-03 19:43:00,73.8,61.1,29.96,ENE,65,0.8,1.3,64,0.00,,,0.00,WUHU216HW,2013-08-03 23:43:00,
2013-08-03 19:48:00,73.3,60.6,29.96,North,0,0.5,0.9,64,0.00,,,0.00,WUHU216HW,2013-08-03 23:48:00,
2013-08-03 19:53:00,72.7,60.5,29.96,North,0,0.0,0.0,65,0.00,,,0.00,WUHU216HW,2013-08-03 23:53:00,
2013-08-03 19:58:00,72.2,60.5,29.96,North,0,0.0,0.0,66,0.00,,,0.00,WUHU216HW,2013-08-03 23:58:00,
2013-08-03 20:04:00,71.6,60.0,29.96,North,0,0.0,0.0,66,0.00,,,0.00,WUHU216HW,2013-08-04 00:04:00,
2013-08-03 20:09:00,70.9,60.2,29.97,North,353,0.3,0.7,69,0.00,,,0.00,WUHU216HW,2013-08-04 00:09:00,
2013-08-03 20:14:00,70.6,59.9,29.97,SSW,203,0.4,0.7,69,0.00,,,0.00,WUHU216HW,2013-08-04 00:14:00,
2013-08-03 20:19:00,70.2,60.0,29.97,SE,135,0.3,1.3,70,0.00,,,0.00,WUHU216HW,2013-08-04 00:19:00,
2013-08-03 20:24:00,69.8,59.6,29.97,North,0,0.0,0.0,70,0.00,,,0.00,WUHU216HW,2013-08-04 00:24:00,
2013-08-03 20:29:00,69.5,59.8,29.97,North,0,0.0,0.0,71,0.00,,,0.00,WUHU216HW,2013-08-04 00:29:00,
2013-08-03 20:34:00,69.5,60.2,29.97,North,0,0.0,0.0,72,0.00,,,0.00,WUHU216HW,2013-08-04 00:34:00,
2013-08-03 20:39:00,69.1,59.8,29.97,North,0,0.0,0.0,72,0.00,,,0.00,WUHU216HW,2013-08-04 00:39:00,
2013-08-03 20:44:00,68.8,60.0,29.97,North,0,0.0,0.0,73,0.00,,,0.00,WUHU216HW,2013-08-04 00:44:00,
2013-08-03 20:49:00,68.2,59.4,29.97,North,0,0.0,0.0,73,0.00,,,0.00,WUHU216HW,2013-08-04 00:49:00,
2013-08-03 20:54:00,67.9,59.5,29.97,North,0,0.0,0.0,74,0.00,,,0.00,WUHU216HW,2013-08-04 00:54:00,
2013-08-03 20:59:00,67.3,59.3,29.97,North,0,0.0,0.0,75,0.00,,,0.00,WUHU216HW,2013-08-04 00:59:00,
2013-08-03 21:04:00,67.0,59.5,29.97,North,0,0.0,0.0,76,0.00,,,0.00,WUHU216HW,2013-08-04 01:04:00,
2013-08-03 21:09:00,66.6,59.1,29.97,North,0,0.0,0.0,76,0.00,,,0.00,WUHU216HW,2013-08-04 01:09:00,
2013-08-03 21:14:00,66.2,58.7,29.98,North,0,0.0,0.0,76,0.00,,,0.00,WUHU216HW,2013-08-04 01:14:00,
2013-08-03 21:20:00,65.7,58.6,29.98,North,0,0.0,0.0,78,0.00,,,0.00,WUHU216HW,2013-08-04 01:20:00,
2013-08-03 21:24:00,65.3,58.2,29.98,WSW,248,0.1,0.4,78,0.00,,,0.00,WUHU216HW,2013-08-04 01:24:00,
2013-08-03 21:29:00,65.0,58.3,29.99,SSE,158,0.6,1.3,79,0.00,,,0.00,WUHU216HW,2013-08-04 01:29:00,
2013-08-03 21:35:00,64.4,57.7,29.99,NNE,18,1.9,3.4,79,0.00,,,0.00,WUHU216HW,2013-08-04 01:35:00,
2013-08-03 21:40:00,64.3,58.0,29.99,North,0,0.2,0.2,80,0.00,,,0.00,WUHU216HW,2013-08-04 01:40:00,
2013-08-03 21:45:00,64.1,57.8,29.99,NE,47,0.9,0.9,80,0.00,,,0.00,WUHU216HW,2013-08-04 01:45:00,
2013-08-03 21:50:00,64.1,57.8,30.00,NE,51,1.5,1.8,80,0.00,,,0.00,WUHU216HW,2013-08-04 01:50:00,
2013-08-03 21:55:00,63.9,58.0,30.00,NE,56,1.0,1.1,81,0.00,,,0.00,WUHU216HW,2013-08-04 01:55:00,
2013-08-03 22:00:00,63.7,57.8,30.00,NE,45,0.3,0.4,81,0.00,,,0.00,WUHU216HW,2013-08-04 02:00:00,
2013-08-03 22:05:00,63.5,58.0,30.00,NNE,33,0.3,0.4,82,0.00,,,0.00,WUHU216HW,2013-08-04 02:05:00,
2013-08-03 22:11:00,63.2,57.7,30.00,East,90,0.6,1.1,82,0.00,,,0.00,WUHU216HW,2013-08-04 02:11:00,
2013-08-03 22:16:00,62.8,57.6,30.00,ENE,68,0.5,0.9,83,0.00,,,0.00,WUHU216HW,2013-08-04 02:16:00,
2013-08-03 22:21:00,62.5,57.0,30.00,ENE,68,0.2,0.4,82,0.00,,,0.00,WUHU216HW,2013-08-04 02:21:00,
2013-08-03 22:26:00,62.3,56.8,30.00,North,0,0.0,0.0,82,0.00,,,0.00,WUHU216HW,2013-08-04 02:26:00,
2013-08-03 22:31:00,61.9,56.8,30.00,North,0,0.0,0.0,83,0.00,,,0.00,WUHU216HW,2013-08-04 02:31:00,
2013-08-03 22:36:00,61.6,56.5,30.01,North,0,0.0,0.0,83,0.00,,,0.00,WUHU216HW,2013-08-04 02:36:00,
2013-08-03 22:41:00,61.2,56.4,30.01,North,0,0.0,0.0,84,0.00,,,0.00,WUHU216HW,2013-08-04 02:41:00,
2013-08-03 22:46:00,60.8,56.0,30.01,NNW,338,0.0,0.2,84,0.00,,,0.00,WUHU216HW,2013-08-04 02:46:00,
2013-08-03 22:51:00,60.5,56.1,30.01,North,0,0.0,0.0,85,0.00,,,0.00,WUHU216HW,2013-08-04 02:51:00,
2013-08-03 22:56:00,60.3,55.9,30.01,North,0,0.0,0.0,85,0.00,,,0.00,WUHU216HW,2013-08-04 02:56:00,
2013-08-03 23:01:00,59.9,55.9,30.01,North,0,0.0,0.0,87,0.00,,,0.00,WUHU216HW,2013-08-04 03:01:00,
2013-08-03 23:06:00,59.6,55.6,30.01,North,0,0.0,0.0,87,0.00,,,0.00,WUHU216HW,2013-08-04 03:06:00,
2013-08-03 23:11:00,59.4,55.7,30.01,North,0,0.0,0.0,88,0.00,,,0.00,WUHU216HW,2013-08-04 03:11:00,
2013-08-03 23:16:00,59.0,55.3,30.01,North,0,0.0,0.0,88,0.00,,,0.00,WUHU216HW,2013-08-04 03:16:00,
2013-08-03 23:21:00,58.7,55.4,30.01,North,0,0.0,0.0,89,0.00,,,0.00,WUHU216HW,2013-08-04 03:21:00,
2013-08-03 23:26:00,58.3,55.0,30.02,North,0,0.0,0.0,89,0.00,,,0.00,WUHU216HW,2013-08-04 03:26:00,
2013-08-03 23:31:00,58.1,54.8,30.02,North,0,0.0,0.0,89,0.00,,,0.00,WUHU216HW,2013-08-04 03:31:00,
2013-08-03 23:37:00,58.0,55.0,30.02,North,0,0.0,0.0,90,0.00,,,0.00,WUHU216HW,2013-08-04 03:37:00,
2013-08-03 23:42:00,57.6,54.6,30.02,North,0,0.0,0.0,90,0.00,,,0.00,WUHU216HW,2013-08-04 03:42:00,
2013-08-03 23:47:00,57.4,54.8,30.02,North,0,0.0,0.0,91,0.00,,,0.00,WUHU216HW,2013-08-04 03:47:00,
2013-08-03 23:52:00,57.1,54.5,30.02,North,0,0.0,0.0,91,0.00,,,0.00,WUHU216HW,2013-08-04 03:52:00,
2013-08-03 23:57:00,56.9,54.3,30.02,North,0,0.0,0.0,91,0.00,,,0.00,WUHU216HW,2013-08-04 03:57:00,